| time (UTC) | temp F | wind direction | speed knots | gust knots | rain 1hr in | rain 24hr in | rain mn in | humidity % | barometer mb |
| 20260505051014 | 59 | 269 | 3.5 | 4.3 | 0.01 | 0.35 | 0.00 | 89 | 1002.6 |
| 20260505050507 | 58 | 269 | 3.5 | 4.3 | 0.01 | 0.35 | 0.00 | 89 | 1002.4 |
| 20260505041512 | 58 | 249 | 3.5 | 4.3 | 0.05 | 0.34 | 0.34 | 91 | 1002.1 |
| 20260505041004 | 58 | 240 | 0.0 | 3.5 | 0.08 | 0.34 | 0.34 | 92 | 1001.9 |
| 20260505040506 | 58 | 15 | 0.9 | 3.5 | 0.09 | 0.34 | 0.34 | 91 | 1001.9 |
| 20260505040015 | 58 | 259 | 1.7 | 3.5 | 0.10 | 0.34 | 0.34 | 89 | 1001.4 |
| 20260505035505 | 58 | 301 | 0.0 | 6.1 | 0.13 | 0.34 | 0.34 | 90 | 1001.8 |
| 20260505035003 | 58 | 340 | 1.7 | 6.1 | 0.19 | 0.34 | 0.34 | 89 | 1002.0 |
| 20260505034517 | 57 | 129 | 0.9 | 2.6 | 0.25 | 0.34 | 0.34 | 90 | 1001.9 |
| 20260505034009 | 57 | 301 | 0.0 | 8.7 | 0.33 | 0.33 | 0.33 | 91 | 1003.0 |
| 20260505033506 | 57 | 293 | 1.7 | 8.7 | 0.32 | 0.32 | 0.32 | 89 | 1003.3 |
| 20260505033022 | 57 | 295 | 1.7 | 4.3 | 0.31 | 0.31 | 0.31 | 90 | 1003.6 |
| 20260505032503 | 57 | 264 | 0.9 | 5.2 | 0.31 | 0.31 | 0.31 | 91 | 1003.4 |
| 20260505032003 | 57 | 270 | 2.6 | 5.2 | 0.30 | 0.30 | 0.30 | 91 | 1003.7 |
| 20260505031519 | 57 | 41 | 0.0 | 3.5 | 0.29 | 0.29 | 0.29 | 91 | 1003.4 |
| 20260505031003 | 57 | 309 | 0.0 | 2.6 | 0.26 | 0.26 | 0.26 | 90 | 1003.7 |
| 20260505030503 | 57 | 63 | 0.9 | 2.6 | 0.25 | 0.25 | 0.25 | 89 | 1003.4 |
| 20260505030012 | 57 | 17 | 0.9 | 2.6 | 0.24 | 0.24 | 0.24 | 87 | 1003.5 |
| 20260505025504 | 58 | 54 | 0.9 | 4.3 | 0.21 | 0.21 | 0.21 | 84 | 1003.6 |
| 20260505025004 | 60 | 319 | 0.9 | 6.1 | 0.15 | 0.15 | 0.15 | 79 | 1003.8 |
| 20260505024525 | 62 | 158 | 1.7 | 7.0 | 0.09 | 0.09 | 0.09 | 73 | 1003.6 |
| 20260505024003 | 64 | 281 | 1.7 | 12.2 | 0.00 | 0.00 | 0.00 | 66 | 1003.5 |
| 20260505023507 | 66 | 309 | 4.3 | 26.1 | 0.00 | 0.00 | 0.00 | 58 | 1003.4 |
| 20260505023019 | 68 | 9 | 9.6 | 26.1 | 0.00 | 0.00 | 0.00 | 60 | 1003.4 |
| 20260505022506 | 68 | 219 | 8.7 | 12.2 | 0.00 | 0.00 | 0.00 | 64 | 1001.5 |
| 20260505022007 | 68 | 225 | 9.6 | 12.2 | 0.00 | 0.00 | 0.00 | 63 | 1001.3 |
| 20260505021526 | 68 | 225 | 9.6 | 12.2 | 0.00 | 0.00 | 0.00 | 63 | 1001.2 |
| 20260505021006 | 68 | 224 | 9.6 | 14.8 | 0.00 | 0.00 | 0.00 | 62 | 1001.1 |
| 20260505020503 | 68 | 210 | 10.4 | 14.8 | 0.00 | 0.00 | 0.00 | 61 | 1001.0 |
| 20260505020006 | 69 | 218 | 12.2 | 14.8 | 0.00 | 0.00 | 0.00 | 61 | 1001.0 |
| 20260505015504 | 69 | 233 | 11.3 | 14.8 | 0.00 | 0.00 | 0.00 | 61 | 1001.0 |
| 20260505015004 | 69 | 217 | 11.3 | 14.8 | 0.00 | 0.00 | 0.00 | 60 | 1001.0 |
| 20260505014512 | 69 | 211 | 12.2 | 17.4 | 0.00 | 0.00 | 0.00 | 60 | 1000.9 |
| 20260505014003 | 69 | 216 | 13.9 | 17.4 | 0.00 | 0.00 | 0.00 | 59 | 1000.8 |
| 20260505013509 | 69 | 219 | 13.9 | 18.2 | 0.00 | 0.00 | 0.00 | 59 | 1000.8 |
| 20260505013015 | 70 | 225 | 12.2 | 19.1 | 0.00 | 0.00 | 0.00 | 58 | 1000.7 |
| 20260505012506 | 70 | 240 | 15.6 | 19.1 | 0.00 | 0.00 | 0.00 | 58 | 1000.7 |
| 20260505012007 | 70 | 221 | 13.0 | 18.2 | 0.00 | 0.00 | 0.00 | 59 | 1000.6 |
| 20260505011006 | 70 | 217 | 12.2 | 16.5 | 0.00 | 0.00 | 0.00 | 59 | 1000.6 |
| 20260505010508 | 70 | 214 | 12.2 | 16.5 | 0.00 | 0.00 | 0.00 | 59 | 1000.5 |
| 20260505010022 | 70 | 222 | 12.2 | 17.4 | 0.00 | 0.00 | 0.00 | 59 | 1000.4 |
| 20260505005503 | 70 | 214 | 13.0 | 19.1 | 0.00 | 0.00 | 0.00 | 58 | 1000.3 |
| 20260505005004 | 70 | 238 | 13.0 | 19.1 | 0.00 | 0.00 | 0.00 | 58 | 1000.1 |
| 20260505004517 | 71 | 223 | 14.8 | 20.9 | 0.00 | 0.00 | 0.00 | 57 | 999.9 |
| 20260505004003 | 71 | 217 | 15.6 | 20.9 | 0.00 | 0.00 | 0.00 | 57 | 999.9 |
| 20260505003503 | 71 | 222 | 14.8 | 20.9 | 0.00 | 0.00 | 0.00 | 58 | 999.9 |
| 20260505003012 | 71 | 229 | 13.9 | 17.4 | 0.00 | 0.00 | 0.00 | 58 | 1000.0 |
| 20260505002509 | 71 | 226 | 13.0 | 17.4 | 0.00 | 0.00 | 0.00 | 58 | 1000.2 |
| 20260505002012 | 72 | 221 | 13.0 | 20.9 | 0.00 | 0.00 | 0.00 | 57 | 1000.2 |
| 20260505001514 | 72 | 236 | 14.8 | 20.9 | 0.00 | 0.00 | 0.00 | 56 | 1000.2 |
| 20260505001010 | 72 | 224 | 14.8 | 25.2 | 0.00 | 0.00 | 0.00 | 55 | 1000.1 |
| 20260505000508 | 73 | 225 | 18.2 | 26.1 | 0.00 | 0.00 | 0.00 | 54 | 1000.0 |
| 20260505000035 | 73 | 233 | 20.9 | 28.7 | 0.00 | 0.00 | 0.00 | 53 | 999.9 |
| 20260504235507 | 74 | 229 | 19.1 | 28.7 | 0.00 | 0.00 | 0.00 | 52 | 999.7 |
| 20260504235009 | 75 | 248 | 16.5 | 26.1 | 0.00 | 0.00 | 0.00 | 52 | 999.7 |
| 20260504234524 | 75 | 229 | 19.1 | 26.9 | 0.00 | 0.00 | 0.00 | 52 | 999.6 |
| 20260504234003 | 75 | 238 | 19.1 | 26.9 | 0.00 | 0.00 | 0.00 | 52 | 999.7 |
| 20260504233504 | 75 | 226 | 21.7 | 27.8 | 0.00 | 0.00 | 0.00 | 51 | 999.7 |
| 20260504233008 | 75 | 224 | 21.7 | 28.7 | 0.00 | 0.00 | 0.00 | 51 | 999.7 |
| 20260504232505 | 75 | 233 | 20.9 | 28.7 | 0.00 | 0.00 | 0.00 | 50 | 999.7 |
| 20260504232004 | 75 | 238 | 21.7 | 27.8 | 0.00 | 0.00 | 0.00 | 50 | 999.8 |
| 20260504231510 | 76 | 224 | 21.7 | 27.8 | 0.00 | 0.00 | 0.00 | 49 | 999.9 |
| 20260504231004 | 76 | 235 | 20.9 | 29.5 | 0.00 | 0.00 | 0.00 | 50 | 1000.0 |
| 20260504230507 | 76 | 242 | 23.5 | 30.4 | 0.00 | 0.00 | 0.00 | 49 | 1000.1 |
| 20260504230016 | 76 | 227 | 21.7 | 30.4 | 0.00 | 0.00 | 0.00 | 49 | 1000.2 |
| 20260504225507 | 76 | 232 | 20.9 | 28.7 | 0.00 | 0.00 | 0.00 | 49 | 1000.3 |
| 20260504225012 | 76 | 238 | 20.0 | 28.7 | 0.00 | 0.00 | 0.00 | 48 | 1000.3 |
| 20260504224521 | 76 | 245 | 21.7 | 27.8 | 0.00 | 0.00 | 0.00 | 47 | 1000.3 |
| 20260504224011 | 76 | 236 | 20.0 | 29.5 | 0.00 | 0.00 | 0.00 | 48 | 1000.4 |
| 20260504223006 | 76 | 225 | 23.5 | 28.7 | 0.00 | 0.00 | 0.00 | 47 | 1000.6 |
| 20260504222504 | 77 | 238 | 21.7 | 32.2 | 0.00 | 0.00 | 0.00 | 48 | 1000.7 |
| 20260504222003 | 77 | 236 | 22.6 | 32.2 | 0.00 | 0.00 | 0.00 | 47 | 1000.8 |
| 20260504221510 | 77 | 237 | 22.6 | 28.7 | 0.00 | 0.00 | 0.00 | 47 | 1000.9 |
| 20260504221008 | 77 | 237 | 21.7 | 28.7 | 0.00 | 0.00 | 0.00 | 47 | 1000.8 |
| 20260504220505 | 77 | 255 | 23.5 | 29.5 | 0.00 | 0.00 | 0.00 | 47 | 1000.9 |
| 20260504220016 | 77 | 243 | 20.0 | 29.5 | 0.00 | 0.00 | 0.00 | 47 | 1000.9 |
| 20260504215507 | 77 | 238 | 22.6 | 30.4 | 0.00 | 0.00 | 0.00 | 46 | 1001.0 |
| 20260504215008 | 77 | 238 | 25.2 | 30.4 | 0.00 | 0.00 | 0.00 | 45 | 1000.9 |
| 20260504214519 | 77 | 229 | 20.9 | 31.3 | 0.00 | 0.00 | 0.00 | 46 | 1001.0 |
| 20260504214009 | 78 | 238 | 22.6 | 31.3 | 0.00 | 0.00 | 0.00 | 45 | 1001.2 |
| 20260504213508 | 78 | 257 | 20.9 | 28.7 | 0.00 | 0.00 | 0.00 | 44 | 1001.2 |
| 20260504213023 | 78 | 237 | 21.7 | 32.2 | 0.00 | 0.00 | 0.00 | 44 | 1001.1 |
| 20260504212507 | 78 | 238 | 20.0 | 32.2 | 0.00 | 0.00 | 0.00 | 45 | 1001.2 |
| 20260504212009 | 77 | 241 | 21.7 | 31.3 | 0.00 | 0.00 | 0.00 | 46 | 1001.2 |
| 20260504211506 | 78 | 236 | 21.7 | 31.3 | 0.00 | 0.00 | 0.00 | 45 | 1001.2 |
| 20260504211004 | 78 | 227 | 22.6 | 29.5 | 0.00 | 0.00 | 0.00 | 44 | 1001.2 |
| 20260504210504 | 77 | 250 | 23.5 | 27.8 | 0.00 | 0.00 | 0.00 | 44 | 1001.2 |
| 20260504210018 | 78 | 231 | 20.9 | 28.7 | 0.00 | 0.00 | 0.00 | 43 | 1001.3 |
| 20260504205505 | 78 | 229 | 20.9 | 29.5 | 0.00 | 0.00 | 0.00 | 44 | 1001.3 |
| 20260504205004 | 77 | 238 | 23.5 | 30.4 | 0.00 | 0.00 | 0.00 | 43 | 1001.2 |
| 20260504204516 | 77 | 247 | 23.5 | 30.4 | 0.00 | 0.00 | 0.00 | 44 | 1001.2 |
| 20260504204006 | 78 | 241 | 23.5 | 30.4 | 0.00 | 0.00 | 0.00 | 43 | 1001.3 |
| 20260504203514 | 77 | 235 | 21.7 | 30.4 | 0.00 | 0.00 | 0.00 | 43 | 1001.2 |
| 20260504203027 | 78 | 232 | 22.6 | 30.4 | 0.00 | 0.00 | 0.00 | 44 | 1001.4 |
| 20260504202513 | 78 | 228 | 20.0 | 32.2 | 0.00 | 0.00 | 0.00 | 43 | 1001.5 |
| 20260504202012 | 78 | 250 | 21.7 | 32.2 | 0.00 | 0.00 | 0.00 | 43 | 1001.3 |
| 20260504201524 | 77 | 245 | 22.6 | 31.3 | 0.00 | 0.00 | 0.00 | 43 | 1001.4 |
| 20260504201006 | 78 | 240 | 22.6 | 26.9 | 0.00 | 0.00 | 0.00 | 43 | 1001.5 |
| 20260504200509 | 79 | 233 | 20.0 | 26.1 | 0.00 | 0.00 | 0.00 | 43 | 1001.6 |
| 20260504200011 | 78 | 243 | 21.7 | 26.1 | 0.00 | 0.00 | 0.00 | 43 | 1001.6 |
| 20260504195503 | 78 | 248 | 20.9 | 29.5 | 0.00 | 0.00 | 0.00 | 43 | 1001.7 |
| 20260504195005 | 78 | 232 | 20.9 | 29.5 | 0.00 | 0.00 | 0.00 | 43 | 1001.8 |
| 20260504194514 | 78 | 245 | 19.1 | 27.8 | 0.00 | 0.00 | 0.00 | 42 | 1001.7 |
| 20260504194005 | 78 | 233 | 19.1 | 27.8 | 0.00 | 0.00 | 0.00 | 45 | 1001.7 |
| 20260504193505 | 77 | 225 | 17.4 | 24.3 | 0.00 | 0.00 | 0.00 | 47 | 1002.1 |
| 20260504193017 | 78 | 236 | 17.4 | 24.3 | 0.00 | 0.00 | 0.00 | 47 | 1001.8 |
| 20260504192505 | 78 | 239 | 20.0 | 24.3 | 0.00 | 0.00 | 0.00 | 47 | 1001.8 |
| 20260504192009 | 78 | 225 | 16.5 | 25.2 | 0.00 | 0.00 | 0.00 | 47 | 1001.8 |
| 20260504191507 | 77 | 228 | 20.0 | 26.1 | 0.00 | 0.00 | 0.00 | 47 | 1002.0 |
| 20260504191004 | 77 | 217 | 19.1 | 26.1 | 0.00 | 0.00 | 0.00 | 46 | 1002.2 |
| 20260504190502 | 77 | 234 | 18.2 | 26.1 | 0.00 | 0.00 | 0.00 | 47 | 1002.3 |
| 20260504190007 | 76 | 235 | 17.4 | 26.1 | 0.00 | 0.00 | 0.00 | 49 | 1002.3 |
| 20260504185504 | 76 | 226 | 15.6 | 26.1 | 0.00 | 0.00 | 0.00 | 49 | 1002.2 |
| 20260504185003 | 75 | 238 | 13.0 | 22.6 | 0.00 | 0.00 | 0.00 | 53 | 1002.3 |
| 20260504184514 | 74 | 238 | 16.5 | 24.3 | 0.00 | 0.00 | 0.00 | 53 | 1002.3 |
| 20260504184004 | 74 | 233 | 17.4 | 25.2 | 0.00 | 0.00 | 0.00 | 56 | 1002.5 |
| 20260504183504 | 73 | 235 | 14.8 | 25.2 | 0.00 | 0.00 | 0.00 | 57 | 1002.7 |
| 20260504183017 | 73 | 227 | 15.6 | 22.6 | 0.00 | 0.00 | 0.00 | 57 | 1002.7 |
| 20260504182505 | 73 | 236 | 15.6 | 22.6 | 0.00 | 0.00 | 0.00 | 55 | 1002.6 |
| 20260504182006 | 72 | 222 | 16.5 | 22.6 | 0.00 | 0.00 | 0.00 | 58 | 1002.7 |
| 20260504181522 | 72 | 230 | 17.4 | 22.6 | 0.00 | 0.00 | 0.00 | 56 | 1002.7 |
| 20260504181007 | 72 | 242 | 18.2 | 26.1 | 0.00 | 0.00 | 0.00 | 54 | 1002.9 |
| 20260504180513 | 73 | 227 | 19.1 | 26.1 | 0.00 | 0.00 | 0.00 | 54 | 1002.7 |
| 20260504180009 | 73 | 244 | 20.0 | 26.1 | 0.00 | 0.00 | 0.00 | 52 | 1002.7 |
| 20260504175503 | 73 | 242 | 19.1 | 24.3 | 0.00 | 0.00 | 0.00 | 51 | 1002.8 |
| 20260504175003 | 73 | 223 | 19.1 | 24.3 | 0.00 | 0.00 | 0.00 | 50 | 1002.8 |
| 20260504174509 | 74 | 236 | 20.0 | 28.7 | 0.00 | 0.00 | 0.00 | 49 | 1002.8 |
| 20260504174003 | 74 | 238 | 17.4 | 28.7 | 0.00 | 0.00 | 0.00 | 49 | 1002.9 |
| 20260504173504 | 74 | 238 | 23.5 | 28.7 | 0.00 | 0.00 | 0.00 | 48 | 1002.9 |
| 20260504173014 | 74 | 250 | 19.1 | 26.9 | 0.00 | 0.00 | 0.00 | 46 | 1003.0 |
| 20260504172504 | 74 | 251 | 20.0 | 28.7 | 0.00 | 0.00 | 0.00 | 46 | 1002.9 |
| 20260504172004 | 74 | 241 | 21.7 | 28.7 | 0.00 | 0.00 | 0.00 | 46 | 1002.8 |
| 20260504171518 | 75 | 244 | 19.1 | 26.1 | 0.00 | 0.00 | 0.00 | 48 | 1002.9 |
| 20260504170508 | 74 | 233 | 20.0 | 26.1 | 0.00 | 0.00 | 0.00 | 47 | 1002.9 |
| 20260504151003 | 71 | 229 | 15.6 | 20.9 | 0.00 | 0.00 | 0.00 | 54 | 1003.3 |
| 20260504150507 | 70 | 245 | 15.6 | 20.0 | 0.00 | 0.00 | 0.00 | 57 | 1003.3 |
| 20260504110508 | 52 | 219 | 6.1 | 8.7 | 0.00 | 0.00 | 0.00 | 86 | 1005.2 |
| 20260504100506 | 51 | 218 | 7.8 | 9.6 | 0.00 | 0.00 | 0.00 | 86 | 1005.4 |
| 20260504082003 | 52 | 223 | 10.4 | 14.8 | 0.00 | 0.00 | 0.00 | 84 | 1006.1 |
| 20260504081517 | 52 | 226 | 9.6 | 13.9 | 0.00 | 0.00 | 0.00 | 84 | 1006.1 |
| 20260504081004 | 52 | 215 | 10.4 | 13.0 | 0.00 | 0.00 | 0.00 | 84 | 1006.2 |
| 20260504080504 | 53 | 217 | 11.3 | 13.9 | 0.00 | 0.00 | 0.00 | 84 | 1006.2 |